Showing default

QIANFAN-165, 69382

Orbit data source: Space-Track

QIANFAN-165, 69382 is a Chinese payload satellite in LEO that was launched on Thu, 04 Jun 2026 UTC via a CHANG ZHENG 6A launch vehicle from the Taiyaun Space Center, China (TSC). Payload-class satellites include a variety of spacecraft equipped with specific instruments for various scientific and technological missions. These include communications satellites like Starlink; space stations such as the ISS; scientific satellites like the Hubble; Earth observation satellites from companies like Planet Labs, Umbra, and HawkEye 360; GPS; miniature CubeSats for education and research; and military/defense satellites.

Loading next visibility...
Identifier
69382, 2026-124A
Orbit
LEO
Country
Flag of CNCN / PRC
Related business
Manufacturer
GESIH
Mission
Operational spacecraft
Bus & Motor
QIANFAN, Unknown motor
Mass
267 kg wet, ~267 kg dry
Launch date (UTC)
2026-06-04 (2 weeks ago)
Launch vehicle
CHANG ZHENG 6A
Launch site
Taiyaun Space Center, China (TSC)
Object type
Payload
Rocket body
Debris
Shape & HBR
Unknown
Radar Cross Section
Large (>1 m²)

Expand to show TLE details & history
Last TLE update: 12 hours ago

TLE from 12 hours ago
0 QIANFAN-165
1 69382U 26124A   26171.36621924  .00000056  00000-0  21393-4 0  9996
2 69382  88.9984   1.6807 0003165 115.0946 245.0571 14.16012697  2260
Epoch: 2026-06-20T08:47Z
TLE epoch observation values (Epoch: 2026-06-20T08:47:21.342Z)
Latitude
0.00003°
Longitude
-38.7401°
Altitude
842.881 km
Speed
7.431 km/s
True Right ascension
00h 06m 43s
True Declination
0° 00' 00"
Sunlit
Object was in daylight at epoch
Visualization orbit readout
Latitude
Unknown
Longitude
Unknown
Altitude
Unknown
Speed
Unknown
Apparent Right ascension
Unknown
Apparent Declination
Unknown
Sunlit
N/A
Visualization observer readout
Local Sidereal Time
07:13:53
Azimuth
Unknown
Elevation
Unknown
Doppler factor
Unknown
Orbital elements
Apogee altitude
838.109 km
Perigee altitude
833.543 km
Semi-major axis
7,213.963 km
Eccentricity
0.00032
Inclination
88.9984°
RAAN
1.6807°
Arg. of periapsis
115.0946°
True anomaly
245.02422°
Mean anomaly
245.0571°
Eccentric anomaly
245.04066°
Mean motion
3.54228 °/min
Orbital period
101.63 mins
BSTAR
0.000021393
Loading maneuver chart data...
Computing Atmospheric mass density...
Loading historical data...
Loading historical data...
Loading historical data...
Loading historical data...
Loading historical data...
Loading historical data...
Loading historical data...

Documentation

Showing up to 5 results
|